Theta_e
324 327 327 328 329 327 326 327 326 326 327 326 326 328 337 343 329 328 352 355 338 338 344 341 342 342 340 341 338 337 339 339 339 340 340 341 341 342 343 343 342 343 342 342 342 342 344 345 345 346 347 347 349 351 353 354 353 354 354 353 353 354 352 348 342 332 324 322 321 321 322 322 318 318 319 320 321 321 321 321 320 321 324 326 326 325 326
325 324 324 326 326 326 326 326 327 326 325 326 324 328 337 337 334 340 351 349 342 339 337 339 338 335 334 335 335 337 338 339 340 341 341 341 342 342 342 342 342 343 342 341 340 341 342 344 345 345 345 346 349 351 352 353 353 352 353 353 354 354 351 350 346 336 326 323 322 323 324 321 318 319 320 322 323 320 319 320 320 321 325 327 327 326 327
323 323 326 326 324 325 325 324 327 326 325 326 325 329 335 332 336 343 343 343 343 338 338 338 332 330 334 334 334 336 338 339 340 341 342 342 341 342 342 343 342 341 341 340 339 341 342 343 344 344 345 346 348 350 351 351 351 352 352 353 353 353 352 351 347 335 325 323 324 326 325 322 319 320 321 324 324 320 320 320 320 323 327 329 328 326 326
321 323 324 325 326 326 323 324 327 326 327 330 329 334 338 335 340 345 339 336 338 340 345 341 332 332 337 335 333 334 336 339 340 341 341 341 343 343 341 341 340 339 339 339 340 342 342 343 344 345 346 348 347 349 349 349 350 350 352 353 352 351 350 345 338 330 325 325 327 329 329 326 325 323 322 323 321 319 320 321 321 325 330 331 329 326 325
322 325 325 326 326 321 323 335 338 332 334 336 335 341 344 341 347 349 339 336 340 345 347 342 338 339 339 334 333 332 334 338 339 340 342 342 342 342 339 340 339 338 339 339 341 343 343 344 345 346 347 348 347 348 348 349 350 351 352 352 349 348 346 341 336 333 328 325 328 331 330 327 328 327 322 321 321 320 320 321 322 326 330 330 328 326 325
323 330 328 326 323 320 329 347 345 334 336 339 338 341 341 341 348 350 343 340 345 348 345 342 343 341 337 333 333 333 334 336 337 339 341 340 340 339 337 337 337 339 340 341 342 343 344 345 346 346 347 347 348 349 350 350 352 352 352 351 348 347 347 343 341 338 330 326 330 334 330 326 329 331 324 321 321 321 321 321 323 326 328 328 326 325 324
329 332 328 321 321 328 343 350 341 335 335 336 340 340 338 340 345 350 349 344 343 345 340 337 338 336 334 334 333 333 335 336 336 338 338 338 339 337 336 338 338 339 339 337 337 336 338 340 343 345 347 348 348 349 350 352 352 352 352 351 350 350 349 347 345 339 330 328 333 334 330 328 332 332 325 320 320 321 321 321 322 324 327 327 325 323 323
328 328 323 320 323 335 347 343 337 340 337 335 339 338 336 339 340 345 349 342 339 339 334 331 334 333 333 334 334 334 336 335 336 336 336 336 335 335 336 336 337 337 335 334 335 334 334 336 338 340 344 348 349 350 351 352 352 352 352 351 351 350 349 347 345 340 331 330 335 333 329 331 334 329 323 320 319 320 320 321 322 325 327 327 324 324 323
335 335 326 327 333 336 343 343 338 337 336 335 339 336 335 339 339 340 344 340 339 340 333 330 333 333 334 336 335 335 335 335 334 334 334 334 334 335 335 335 335 335 335 336 336 334 334 334 334 337 341 346 350 351 351 352 352 352 352 352 351 350 348 344 342 339 332 331 334 333 330 334 335 328 322 320 320 320 320 321 324 328 328 326 324 324 324
341 340 328 331 334 331 338 346 342 335 331 333 340 340 337 339 339 338 340 339 340 340 335 331 331 332 337 340 336 333 334 333 333 333 332 332 333 334 334 334 335 335 337 339 335 332 333 333 332 334 338 344 350 352 352 352 352 352 352 352 350 349 345 342 340 339 334 332 334 332 330 334 337 331 325 322 321 320 320 322 327 329 327 325 325 326 327
343 344 335 334 335 334 341 346 341 336 332 333 339 338 335 339 338 334 338 341 339 337 332 330 332 336 341 342 338 333 334 333 332 333 334 333 334 334 335 336 336 336 338 338 335 333 333 333 333 334 337 344 350 353 353 352 352 352 351 351 350 347 343 340 338 338 336 335 335 332 330 334 337 335 331 328 325 322 321 324 328 328 327 327 328 330 331
348 348 339 333 334 340 345 342 338 335 332 335 338 333 333 340 338 332 336 340 337 332 329 330 337 341 341 341 339 334 334 334 333 333 334 332 334 336 335 337 337 338 339 337 335 335 333 333 335 336 339 344 347 349 352 352 352 353 352 351 349 344 340 338 337 338 338 338 337 335 333 335 337 336 334 333 331 327 324 328 332 331 328 329 330 332 333
346 344 336 330 336 346 344 338 335 333 334 340 340 335 336 339 336 333 334 335 334 333 332 334 339 340 337 339 340 337 335 334 334 335 336 336 337 338 338 339 340 339 339 336 335 335 335 335 336 336 339 341 342 344 348 351 352 352 351 348 345 343 342 339 338 339 339 338 338 336 335 336 337 336 335 335 335 334 332 334 335 333 331 331 332 334 334
344 346 340 332 337 344 336 333 334 334 339 345 339 335 337 336 335 337 336 334 337 337 337 338 339 338 337 338 339 339 338 338 339 339 339 339 340 340 340 340 340 339 337 336 336 336 336 337 337 337 340 341 342 346 348 350 352 350 348 346 345 344 342 339 338 340 340 340 339 337 336 337 338 337 335 336 337 336 335 336 337 335 334 334 335 336 335
341 348 341 331 337 340 332 337 347 345 343 343 336 334 337 336 336 338 337 336 337 337 337 338 337 337 337 336 335 336 337 339 340 340 340 340 340 339 338 339 339 338 337 336 337 337 337 337 338 339 340 342 346 349 349 350 350 348 346 345 345 344 342 338 339 341 342 342 340 337 337 339 338 336 337 338 339 337 335 337 338 337 336 336 336 336 335
344 350 342 334 340 339 332 339 349 343 337 337 335 334 334 334 336 337 338 339 339 337 338 339 338 337 337 336 336 336 336 338 339 338 337 337 337 337 338 338 338 338 338 338 339 339 338 339 341 343 343 345 348 350 350 349 349 346 344 343 343 343 341 339 339 340 342 342 340 338 338 338 337 338 340 341 341 340 338 339 339 337 337 338 337 335 333
341 345 343 339 337 333 331 334 336 334 334 335 335 333 332 332 333 335 336 337 338 339 339 339 338 340 339 338 338 337 335 334 335 333 332 331 333 336 337 339 339 339 341 341 342 342 342 342 344 344 344 346 349 350 349 348 346 344 342 342 341 341 339 338 338 338 339 340 339 338 338 338 338 341 343 342 342 341 340 339 338 337 337 337 336 334 332
338 336 336 335 333 330 330 331 330 330 332 331 331 331 330 329 331 332 331 332 334 335 335 336 336 334 333 335 336 337 337 336 333 332 332 332 334 335 336 339 340 341 343 344 344 344 345 345 345 345 345 348 350 349 347 346 344 342 340 339 339 339 339 338 337 336 337 338 338 338 337 338 340 342 343 342 341 341 341 340 339 338 337 336 335 334 332
340 339 337 336 334 332 330 329 329 330 329 329 330 329 327 327 328 329 328 329 329 330 331 331 332 330 330 330 330 331 334 336 335 335 333 333 333 334 335 338 340 342 343 344 344 345 345 345 346 345 346 348 348 346 345 343 343 344 341 338 338 339 340 339 337 337 337 338 337 337 337 337 340 342 341 341 341 341 339 338 336 336 335 335 334 332 330
343 342 338 336 333 331 330 329 328 327 328 328 328 328 328 328 328 328 328 328 328 328 328 328 328 329 330 331 330 330 330 331 332 333 332 332 334 335 337 339 341 341 342 342 342 343 343 344 345 345 345 346 345 344 343 343 344 345 344 341 340 340 340 339 337 337 336 334 333 335 338 339 341 342 342 341 341 339 337 336 335 335 334 333 331 329 328
342 338 335 333 332 331 331 329 327 327 326 327 327 326 327 327 326 325 325 326 327 327 327 327 327 327 328 328 330 333 333 333 332 332 332 333 335 336 338 339 340 340 340 340 340 339 339 340 343 344 343 343 343 342 342 342 343 344 343 343 342 341 339 337 337 337 334 331 332 337 340 341 342 342 342 341 340 339 337 336 335 334 332 330 328 328 328
341 338 335 333 333 334 331 327 326 326 326 326 326 325 325 324 323 323 323 323 324 325 325 325 326 326 326 326 328 331 335 336 335 332 331 332 333 334 336 337 337 339 339 338 337 336 337 339 341 342 342 341 342 341 340 341 341 341 341 341 338 336 333 331 333 336 335 335 338 340 341 342 342 342 340 339 338 338 337 335 333 331 329 328 328 328 328
338 337 334 330 330 331 328 324 324 325 324 325 325 323 324 324 323 324 323 323 323 324 324 324 324 324 324 326 328 331 334 337 337 335 333 332 332 333 334 334 335 336 336 335 335 334 335 338 339 341 342 341 340 340 339 339 338 336 335 333 330 329 327 326 330 338 339 339 338 336 335 338 339 337 335 335 335 335 334 332 330 329 329 329 328 327 327
332 330 329 326 325 326 324 324 325 324 323 324 323 323 324 323 323 323 323 323 323 323 324 324 324 324 324 324 325 327 331 334 336 337 336 334 332 331 332 332 333 335 335 335 335 334 335 337 339 341 341 339 339 339 339 337 334 331 329 327 325 325 327 330 337 340 338 332 327 324 326 331 332 331 332 333 333 332 331 330 330 329 328 328 327 326 326
327 324 323 323 323 324 324 324 324 324 324 324 323 323 323 323 323 323 322 322 322 322 323 323 324 324 324 324 324 325 327 331 335 337 338 336 334 332 332 331 331 334 335 335 335 335 337 339 340 339 339 338 339 338 338 336 333 328 326 325 324 324 328 336 341 337 328 322 321 323 326 329 330 331 333 333 332 331 330 330 329 328 327 327 326 326 326
323 322 323 323 323 324 324 324 323 323 324 324 323 323 323 322 322 322 321 321 322 321 322 323 323 324 324 324 325 326 328 332 336 338 338 337 335 335 334 334 334 336 337 337 337 337 338 340 340 339 338 336 337 337 335 333 330 328 327 327 327 326 330 335 337 331 323 322 325 327 329 331 331 332 332 331 331 331 330 329 328 327 327 327 326 326 326
322 323 324 324 322 322 322 322 322 322 323 324 323 324 323 322 322 322 321 321 321 321 321 322 322 323 324 324 324 326 328 332 335 336 337 339 339 338 337 338 338 339 340 340 339 339 340 340 340 338 337 335 334 334 333 330 330 331 332 330 329 330 333 335 334 330 326 326 328 330 331 332 332 331 331 331 331 330 329 329 328 328 327 327 326 325 324
323 324 323 322 321 320 321 322 322 323 323 324 323 323 323 322 322 321 321 321 321 321 321 321 321 322 322 322 322 323 324 327 329 331 333 334 336 338 339 340 339 340 341 342 340 339 339 339 337 337 336 335 334 333 332 331 332 333 332 329 330 333 334 333 330 328 327 328 331 332 332 332 331 330 330 330 330 329 329 328 327 327 327 326 325 324 323
321 322 322 321 321 321 322 322 322 322 321 321 322 323 322 322 322 321 321 320 320 320 320 320 320 321 321 321 321 321 321 322 323 325 327 329 332 335 337 339 340 341 342 343 342 339 337 337 336 335 334 333 332 331 330 331 331 329 326 326 328 329 327 325 325 328 330 331 332 331 330 330 329 329 329 329 329 328 328 327 327 326 326 324 324 323 321
319 319 319 319 318 319 319 318 316 316 316 317 318 319 320 321 321 320 320 320 320 320 320 319 320 320 320 321 320 320 320 319 319 320 323 326 329 332 334 336 338 338 339 342 342 339 337 336 336 334 333 332 332 331 330 329 327 325 323 322 322 322 320 321 324 327 328 329 329 328 328 328 328 328 328 328 328 327 327 326 325 325 324 324 323 321 320
318 317 317 317 316 316 316 315 315 315 314 314 314 315 316 318 319 319 320 320 319 320 320 319 320 320 320 320 320 319 319 319 319 319 321 323 325 328 330 332 335 335 335 338 340 339 338 338 336 333 331 331 332 332 330 326 323 322 322 321 321 320 320 321 323 323 324 325 326 326 326 327 327 327 328 327 327 327 326 325 324 324 324 323 321 319 319
318 317 317 318 317 317 317 317 317 317 316 316 316 316 315 317 318 319 319 319 319 320 320 320 320 320 320 321 320 319 319 320 321 321 321 322 323 324 326 329 332 334 334 335 336 337 338 338 336 333 331 330 331 331 328 325 322 322 322 322 322 322 321 321 322 322 324 325 326 325 324 324 324 326 327 326 326 325 324 323 323 323 323 321 319 318 319
318 318 318 318 318 318 318 318 318 318 318 318 318 317 317 318 318 318 318 318 318 319 320 320 321 321 321 322 321 321 321 322 321 321 322 322 322 323 324 327 331 333 334 334 335 337 338 338 336 333 331 330 330 330 327 325 323 323 322 321 323 325 325 324 324 325 326 326 326 324 323 323 323 324 325 325 324 324 323 323 323 322 321 318 317 318 317
319 319 319 319 318 319 319 318 318 319 319 318 319 319 319 319 318 318 318 318 318 319 320 320 321 321 321 321 321 321 321 321 321 321 321 322 322 322 324 328 332 333 334 335 335 336 336 335 333 331 331 330 330 329 328 326 324 324 323 324 326 328 328 327 327 327 327 326 326 325 324 323 322 323 324 324 324 323 323 323 322 321 319 317 316 316 316
319 319 319 319 319 319 319 319 319 319 318 319 319 319 319 319 319 319 320 320 319 320 320 320 321 321 320 320 320 320 320 320 320 321 321 321 321 321 323 328 332 333 334 334 334 334 333 333 331 330 329 329 327 326 327 327 326 325 326 328 329 330 329 328 328 327 327 326 326 325 323 323 322 323 323 323 323 323 322 322 321 320 318 317 316 315 315
319 319 320 319 319 319 319 319 319 319 319 319 319 320 320 320 320 320 320 320 320 320 320 320 320 320 320 320 319 319 319 319 319 319 320 320 320 320 321 325 330 332 332 332 331 329 329 329 328 328 327 326 325 326 327 328 328 327 328 329 330 329 328 328 327 326 326 325 325 324 323 322 323 323 323 323 323 322 322 321 320 319 318 317 316 316 316
319 319 319 319 319 320 320 319 320 320 320 320 320 320 320 320 320 320 320 319 319 319 319 319 319 319 319 319 319 318 318 318 318 318 318 318 319 320 322 325 328 331 331 330 328 327 326 327 327 327 327 328 327 327 327 327 328 328 328 328 328 327 327 326 325 325 325 325 324 323 323 322 322 322 323 323 322 321 320 320 320 319 317 316 316 316 315
318 318 319 319 319 320 320 320 320 320 320 320 320 320 320 320 320 320 320 319 319 319 319 319 319 318 318 318 318 318 318 318 318 317 317 318 319 322 324 325 326 328 329 329 327 325 326 327 328 328 328 327 326 324 325 326 326 327 327 327 327 326 326 325 324 324 323 323 323 323 322 322 321 321 322 321 321 319 318 318 318 318 317 317 316 315 315
317 317 318 318 318 319 319 319 319 319 319 319 319 319 319 319 319 319 319 319 320 321 321 320 320 320 320 320 320 320 321 322 322 321 321 322 323 324 325 326 326 327 327 326 325 325 327 329 329 328 328 327 326 324 325 326 326 325 325 325 325 325 325 324 323 323 322 322 322 322 321 321 321 321 321 320 319 317 317 317 317 318 317 317 316 315 315
318 318 317 317 317 317 317 317 317 317 317 317 318 318 318 318 319 319 319 320 321 322 322 321 322 322 322 323 323 323 324 324 325 325 325 325 325 325 325 326 326 326 326 325 325 326 328 329 327 326 325 325 325 324 325 325 324 323 322 323 324 324 323 322 321 321 321 320 320 319 318 318 319 319 319 318 317 316 316 316 316 316 316 316 315 314 314
318 318 318 318 317 317 317 317 317 317 317 317 317 318 319 319 319 319 318 319 321 322 322 322 322 322 323 322 322 323 324 324 325 325 325 325 325 325 325 326 326 326 326 326 326 327 327 326 324 323 323 323 323 322 323 322 322 320 320 322 323 323 322 320 319 319 319 318 317 317 317 316 316 316 316 316 316 316 316 316 316 315 315 315 314 314 313
319 318 318 319 319 319 318 318 318 318 318 317 317 318 319 319 319 319 318 318 319 321 322 322 322 322 322 322 321 322 322 323 324 324 324 324 324 323 323 324 324 324 325 325 325 324 324 323 322 322 322 322 321 321 321 321 321 320 320 321 321 321 320 319 318 318 318 317 317 317 317 316 316 316 316 316 316 316 315 315 315 315 315 315 314 313 312
319 319 319 319 319 319 318 318 318 318 318 318 318 318 318 318 318 318 318 318 318 319 321 322 322 322 322 322 322 322 322 322 322 322 322 322 322 322 322 322 322 323 323 323 323 322 322 322 322 322 321 321 320 321 320 320 320 319 319 318 318 319 319 319 318 318 318 318 318 318 317 317 317 317 316 316 316 315 315 315 315 314 314 314 313 313 311
318 318 319 319 319 318 318 318 318 318 318 318 318 318 318 318 318 317 317 317 317 318 319 321 321 321 322 322 322 322 322 321 321 321 321 321 322 322 321 321 322 322 322 322 321 321 321 321 321 320 320 320 320 320 319 318 318 318 317 317 316 316 316 316 316 316 316 316 316 317 316 316 316 317 317 317 317 316 315 315 314 314 314 313 313 312 311
318 317 318 318 318 317 317 317 317 317 318 317 317 318 318 318 318 318 317 317 317 317 318 318 319 319 320 321 321 322 322 321 322 322 322 322 321 321 321 321 321 322 322 322 321 321 321 320 319 319 319 319 318 318 318 318 317 317 316 316 316 316 316 315 315 314 313 313 313 312 312 311 311 312 313 315 316 316 316 315 314 313 313 313 313 312 311
317 317 317 317 317 316 316 316 315 316 317 317 317 317 318 318 318 317 317 317 318 317 317 318 318 318 318 319 320 321 322 321 321 321 321 320 320 320 321 321 321 321 321 320 320 320 319 318 318 319 318 317 316 315 315 314 313 312 312 312 313 314 315 314 314 313 312 311 310 309 309 308 308 307 308 309 311 313 314 314 314 313 313 313 312 312 311
316 317 317 317 317 316 315 314 313 314 315 316 317 318 317 317 316 316 316 316 317 318 318 318 318 318 318 318 319 320 321 321 320 320 320 319 320 320 321 321 321 321 320 320 319 319 318 317 317 317 315 312 311 311 311 310 310 309 309 310 310 310 311 311 311 310 310 310 310 309 308 308 307 307 306 306 308 309 310 311 312 312 313 313 312 312 311
316 316 317 317 317 316 314 312 311 312 313 314 315 316 316 316 316 315 314 314 316 317 318 318 318 318 318 318 318 319 319 320 320 320 320 319 319 320 321 320 320 320 320 319 318 318 318 317 317 316 314 312 312 313 313 312 310 310 310 310 311 311 311 311 311 311 310 310 310 309 308 307 307 307 306 306 306 307 308 308 309 310 310 310 310 310 310
315 315 316 317 317 316 314 312 312 311 311 312 313 314 314 314 315 315 315 314 313 314 316 317 317 317 318 318 318 318 318 318 319 319 320 319 319 319 319 319 319 319 319 318 317 317 318 318 317 317 317 315 315 315 314 312 311 311 311 311 311 311 311 311 311 311 311 310 309 308 307 306 306 305 305 305 305 306 307 307 307 308 308 308 308 309 308
314 314 314 315 317 316 314 312 312 312 312 312 312 312 313 313 313 314 315 314 312 312 313 314 314 315 316 317 317 318 318 318 318 318 319 319 318 318 319 319 318 318 318 317 316 316 317 318 318 318 318 317 316 315 314 312 311 311 311 311 311 312 312 312 312 311 311 309 308 306 305 305 304 304 304 304 304 305 306 306 306 306 307 307 307 307 307
314 313 313 314 315 315 313 312 312 313 313 312 312 313 313 312 312 313 313 313 312 312 311 312 311 312 313 313 314 316 317 317 318 318 318 318 318 318 318 318 318 318 317 316 315 315 315 315 316 316 317 316 316 314 313 312 311 311 311 311 312 311 311 312 312 311 310 308 307 306 305 305 304 304 304 303 304 304 304 304 305 305 305 305 305 305 305
313 313 313 313 314 313 312 312 312 313 313 313 313 313 312 312 312 312 312 312 312 312 312 312 312 311 311 311 311 311 312 313 315 316 317 318 318 318 318 318 318 318 317 316 316 315 314 314 314 314 314 314 314 313 312 311 311 311 311 312 311 311 312 312 312 311 310 309 308 307 307 305 304 303 303 303 303 303 303 303 304 304 304 304 304 304 304
Wind_Speed
17 15 16 15 8 6 7 8 11 13 12 12 13 11 9 10 9 8 8 9 12 12 11 12 13 14 14 15 20 25 27 28 30 30 30 32 35 39 41 42 43 42 41 40 40 41 43 45 46 47 48 49 48 47 46 46 47 49 50 50 51 49 45 39 36 41 43 38 32 28 25 23 22 20 20 17 13 12 15 16 17 16 15 15 15 16 16
14 14 16 16 12 11 10 9 11 13 13 16 16 12 9 11 10 7 10 14 13 12 13 15 16 16 14 14 18 22 23 25 27 28 30 34 38 40 41 41 41 40 39 37 36 37 40 42 44 46 47 48 47 46 47 47 48 50 51 51 51 49 48 46 43 44 44 38 32 28 25 23 21 21 21 14 8 12 18 18 18 17 16 16 17 17 17
10 12 15 15 13 13 13 13 13 11 10 11 11 6 5 5 3 1 8 13 11 8 7 8 10 11 8 8 13 19 25 28 29 30 33 36 37 38 39 39 38 36 35 35 35 36 37 39 41 43 45 46 45 46 47 48 49 50 50 51 51 49 50 48 43 41 38 32 29 27 23 22 20 20 21 16 12 17 22 20 18 18 17 18 18 18 18
8 10 14 14 10 9 11 13 12 8 7 6 6 5 5 7 5 4 6 8 10 7 2 4 5 8 9 9 15 21 26 30 32 32 34 35 35 36 37 36 34 32 33 34 36 36 36 37 38 40 42 44 44 45 46 47 48 48 50 50 48 46 47 42 34 32 30 28 29 27 21 21 20 15 18 20 19 21 23 21 20 19 19 20 19 19 19
7 8 10 10 6 5 8 9 8 8 7 6 5 3 1 3 7 8 6 7 9 6 7 7 6 6 7 10 16 22 24 27 29 32 34 34 33 33 33 31 29 30 31 33 34 34 34 34 36 37 40 41 43 44 44 44 46 47 47 45 41 43 44 36 28 28 28 29 32 28 22 23 18 10 15 24 25 24 24 22 21 20 20 20 20 21 21
7 6 6 7 6 6 7 5 3 6 6 8 10 5 3 2 3 5 5 5 6 8 9 10 9 8 8 10 16 21 25 27 28 29 30 30 29 29 28 27 27 27 26 25 25 24 24 25 28 31 35 37 39 41 41 42 43 44 43 41 42 44 44 37 30 30 31 34 35 31 27 25 19 15 19 25 27 27 25 23 22 21 21 21 21 22 22
4 3 7 7 7 7 5 4 3 3 8 13 13 8 5 6 4 1 1 1 5 8 9 13 17 14 11 12 16 19 24 28 29 28 26 25 25 25 23 22 21 19 16 13 11 11 13 16 18 21 25 30 34 37 39 40 42 43 43 44 46 47 46 41 34 32 36 39 37 34 31 26 21 23 25 26 27 28 26 25 24 22 21 21 22 23 22
3 4 5 7 6 3 3 4 3 2 5 10 11 9 8 9 7 3 1 1 1 2 5 13 22 24 19 15 15 18 20 21 22 22 20 20 20 19 18 17 14 11 8 6 4 5 7 10 12 15 18 21 27 32 36 39 41 43 44 46 48 49 48 42 34 32 39 40 35 32 31 26 22 23 26 26 27 28 27 27 25 23 22 23 23 22 21
3 5 2 2 2 3 4 3 2 1 0 2 7 6 4 6 7 6 1 5 6 6 6 9 20 27 23 13 10 16 19 18 17 17 16 16 15 15 14 13 10 8 8 6 4 3 4 6 8 11 13 17 22 27 33 37 40 42 45 47 48 50 48 41 32 33 39 40 37 34 33 28 24 23 24 25 26 27 28 27 25 25 25 24 24 23 22
2 5 4 2 4 1 3 6 7 4 3 4 4 8 2 6 8 9 3 5 9 8 7 11 18 22 15 6 5 12 17 17 16 15 14 14 13 12 12 11 9 9 9 7 5 3 4 6 8 9 11 14 19 25 30 34 38 41 44 46 49 50 47 39 32 33 37 41 41 40 36 30 24 21 21 23 25 27 27 25 24 25 26 26 25 24 23
1 5 5 3 2 2 5 8 11 10 9 7 1 7 1 6 8 9 5 4 6 8 9 10 13 13 8 5 5 7 12 16 16 15 14 14 14 13 12 11 9 9 9 8 7 5 5 7 8 9 10 13 16 22 27 31 35 39 42 45 48 48 43 34 30 32 37 41 41 39 36 30 23 20 19 19 23 26 25 24 24 26 27 26 25 23 23
0 4 3 2 2 3 6 6 10 16 14 4 5 5 3 7 11 8 7 7 6 6 9 7 7 6 5 5 1 2 8 13 14 14 15 15 15 13 11 10 9 8 8 7 5 5 6 7 8 9 9 11 14 18 23 27 31 34 38 42 42 40 34 29 29 34 39 40 37 34 32 28 24 22 19 18 21 24 24 24 25 27 28 27 26 26 25
1 4 4 1 1 3 5 7 12 16 11 5 7 5 5 6 13 10 16 16 12 14 15 12 9 8 7 7 6 6 8 10 12 14 14 14 12 10 8 8 7 6 5 5 6 7 7 7 8 9 9 10 13 17 21 25 28 31 34 37 37 34 29 27 30 37 40 38 34 31 29 25 23 22 21 20 20 21 23 25 27 29 28 27 28 29 26
2 3 4 2 2 3 4 11 16 11 4 4 4 4 5 10 12 14 22 23 22 24 25 21 18 17 17 17 16 14 11 10 11 10 9 7 6 5 5 5 4 5 6 7 8 8 8 7 8 9 10 11 13 16 21 24 27 29 31 32 33 32 28 25 30 39 41 37 35 32 27 23 22 22 22 21 20 20 22 25 28 29 28 28 29 30 27
1 2 3 3 3 4 10 13 11 7 4 6 8 10 12 14 15 19 25 25 24 26 26 24 24 23 21 20 18 16 14 11 10 8 5 3 2 1 2 4 5 7 8 9 10 9 8 8 9 10 11 12 13 16 19 23 26 26 26 28 31 30 25 23 30 40 40 36 36 34 27 23 22 22 22 21 20 21 22 25 28 29 28 28 30 30 27
2 2 1 2 5 7 13 7 2 5 8 14 19 17 15 18 21 23 24 23 22 24 25 23 23 21 20 18 16 15 14 11 9 7 5 4 3 5 6 6 7 8 9 11 11 11 9 9 10 10 11 12 12 14 17 22 24 22 21 26 30 26 19 19 28 38 38 36 37 34 28 25 23 22 21 20 21 23 24 26 28 28 28 29 30 28 24
2 4 2 2 1 5 11 11 16 18 21 26 28 26 23 25 26 27 28 27 24 24 25 25 24 22 20 17 14 11 11 10 8 6 5 4 3 5 6 7 9 10 11 12 12 12 11 10 10 10 11 11 11 13 16 18 19 17 18 23 26 22 17 18 26 33 34 34 35 33 29 26 24 21 20 20 22 24 26 27 28 28 28 29 28 24 21
2 4 4 4 5 9 13 16 21 25 27 27 30 32 31 28 27 28 28 27 24 23 22 21 21 20 17 16 14 12 10 8 8 7 6 5 3 4 5 7 9 10 11 13 13 13 12 11 11 11 10 10 11 13 14 15 16 15 16 21 23 19 17 18 23 29 32 32 30 28 26 25 22 21 21 22 23 25 26 27 27 26 26 26 25 22 21
4 3 1 1 4 6 10 16 21 24 25 24 27 30 30 28 27 26 23 22 22 21 20 18 16 14 12 10 10 12 13 13 10 9 8 6 5 5 5 7 9 9 10 12 13 13 13 13 12 12 11 11 12 13 13 14 14 13 13 16 18 18 18 17 20 27 29 25 21 21 22 23 22 22 23 23 24 25 25 24 23 23 23 23 22 20 18
4 4 3 4 9 9 9 14 20 22 23 22 22 22 21 20 20 19 16 14 13 13 13 13 11 11 11 10 7 9 12 12 10 9 8 7 6 5 5 6 8 9 9 10 10 11 12 13 13 13 13 12 12 14 14 13 12 11 12 15 17 18 18 17 19 22 21 18 18 21 24 23 24 25 25 24 24 23 22 21 20 20 20 20 19 18 16
5 6 6 9 13 11 8 12 16 19 21 21 21 21 19 18 19 18 17 14 11 10 10 9 6 6 9 10 8 7 7 7 7 7 6 6 5 4 4 5 6 7 8 8 9 10 12 14 15 15 14 13 15 16 13 10 9 12 15 18 18 16 14 13 16 19 20 21 24 26 25 24 24 25 24 23 22 21 20 19 18 18 18 17 17 17 15
5 3 6 10 10 7 7 12 15 16 17 18 20 21 21 21 21 21 22 22 19 16 14 11 9 8 7 7 6 5 6 7 7 6 6 7 6 6 6 7 7 8 9 10 11 12 14 15 16 15 14 15 16 14 10 8 9 11 13 14 15 15 15 14 17 22 25 26 26 24 23 23 24 23 22 21 20 19 19 18 17 17 17 17 17 17 16
5 6 9 13 14 11 11 16 19 19 20 21 23 24 24 23 21 21 22 23 22 19 17 14 13 12 10 7 5 5 5 6 8 8 9 9 8 8 8 9 9 10 10 11 12 13 15 16 15 14 14 15 15 12 10 10 10 10 11 12 13 16 18 19 21 23 23 21 21 20 22 23 23 21 20 19 18 18 18 17 17 17 17 17 17 17 16
5 14 20 22 22 20 19 23 25 23 22 24 25 25 24 23 21 20 20 19 19 18 17 16 14 13 11 9 7 6 6 7 8 10 11 11 9 9 10 10 11 12 12 12 13 13 14 14 13 12 13 14 13 11 11 13 13 12 11 11 12 15 19 21 21 21 19 19 19 21 22 22 20 19 17 17 17 17 16 16 17 17 17 17 17 16 16
12 22 27 28 29 28 26 28 28 25 22 23 24 23 22 21 20 18 18 18 17 16 16 16 15 13 12 10 9 8 8 8 8 9 11 10 10 11 12 13 13 13 13 13 13 13 13 12 11 11 13 14 14 14 14 15 15 14 13 12 15 18 20 21 22 22 21 20 20 20 19 18 17 16 17 17 16 16 15 16 16 16 16 16 16 15 15
26 30 31 30 29 27 26 25 25 25 23 22 22 22 20 18 18 17 17 17 16 15 14 14 13 13 12 10 10 10 9 8 7 7 9 10 11 12 14 14 13 14 14 14 14 13 12 10 10 12 13 14 15 16 16 15 15 15 16 17 17 19 20 21 23 22 20 19 18 17 16 16 15 16 16 17 16 15 14 14 14 14 15 15 15 15 14
26 26 26 24 23 23 25 25 23 22 20 18 19 19 17 14 13 13 14 15 15 14 13 12 12 11 11 10 10 10 9 9 8 8 8 9 11 13 15 15 14 14 14 15 14 13 11 10 13 16 17 17 17 17 16 14 14 16 17 16 15 16 18 19 20 19 17 15 15 15 15 15 15 15 15 16 16 15 13 13 13 13 14 15 15 14 13
24 23 23 22 20 21 23 23 19 18 17 16 14 13 11 9 9 10 12 13 13 12 12 12 13 13 13 14 13 12 11 10 10 11 11 10 11 12 14 15 16 16 16 15 14 13 13 14 16 19 20 20 18 16 15 15 16 17 16 14 15 17 18 18 17 16 15 14 14 14 14 14 14 14 14 14 14 13 12 12 13 14 15 15 14 12 10
28 27 26 25 22 19 18 17 16 16 15 14 12 11 10 10 10 11 12 12 12 12 12 13 15 15 16 16 16 15 14 13 13 13 12 12 11 11 12 14 15 16 16 15 13 14 15 17 20 21 22 22 20 16 15 16 17 16 16 16 16 16 16 15 15 14 13 13 13 13 13 12 12 12 13 14 14 13 12 12 13 14 14 14 13 11 9
25 24 23 21 18 15 14 16 16 16 15 14 12 12 11 10 10 11 11 12 13 13 14 14 15 15 16 17 17 18 16 15 15 15 14 13 12 11 11 13 14 15 16 16 16 16 17 20 23 22 20 20 19 17 15 15 15 14 14 14 14 14 13 12 12 11 11 11 11 12 12 11 11 12 13 14 13 13 12 12 13 14 14 13 11 9 7
22 21 20 18 16 15 15 16 15 15 15 14 13 12 12 12 12 12 13 13 13 14 15 15 15 16 17 17 18 19 18 17 16 16 15 14 13 12 12 14 15 16 16 17 18 20 22 24 23 21 19 19 18 16 15 14 14 13 12 11 11 10 9 10 10 11 11 11 11 11 11 11 11 12 13 13 13 12 12 12 13 13 13 12 9 6 5
16 18 19 18 16 16 16 15 15 15 14 14 13 13 13 13 14 14 14 15 14 14 14 15 15 15 15 16 18 19 19 18 18 17 16 15 14 14 13 14 17 18 18 18 19 20 22 23 22 22 23 23 20 18 16 16 15 13 11 9 9 9 9 10 11 12 11 11 11 10 10 11 11 12 12 12 12 12 11 11 12 12 10 8 6 5 6
15 17 17 17 16 16 15 14 13 12 12 11 11 10 10 11 12 13 14 15 16 15 15 15 15 15 15 16 17 18 19 20 20 19 18 17 17 16 15 15 17 19 19 19 18 19 20 21 21 22 24 24 22 20 20 18 14 12 11 10 10 10 10 10 10 10 10 11 10 10 10 10 11 12 12 11 11 10 10 10 10 9 8 6 5 6 7
16 14 12 11 12 12 11 10 9 8 8 8 7 8 9 10 11 13 14 16 17 17 17 17 17 17 17 18 18 19 20 21 21 22 22 21 21 20 18 16 16 18 19 18 18 18 18 19 21 24 24 23 21 20 20 18 14 12 11 11 10 9 9 9 9 9 10 10 10 10 10 11 11 11 11 10 10 10 10 10 10 9 7 6 7 8 8
10 9 7 6 6 6 6 7 7 8 8 8 8 8 9 10 11 11 13 14 16 17 18 19 20 20 21 21 21 21 22 22 23 24 24 24 23 23 20 16 14 17 18 17 16 17 18 19 20 21 21 20 19 20 20 19 16 14 11 10 9 9 10 10 9 9 9 9 9 9 10 10 11 11 10 11 11 11 10 9 9 9 8 7 8 8 7
5 5 5 5 6 6 7 7 7 8 8 8 9 8 8 9 11 12 14 15 16 18 20 21 22 23 23 24 24 24 24 24 24 25 25 25 25 24 21 16 13 15 18 17 15 15 17 18 18 18 19 21 21 20 18 15 14 13 12 11 11 11 11 10 10 9 9 9 8 8 9 9 10 10 10 10 11 10 9 9 10 10 9 8 8 7 8
9 9 9 9 9 9 9 8 8 7 7 8 9 10 11 12 12 13 15 16 17 18 19 19 21 22 23 24 24 24 24 24 24 24 24 24 23 21 18 14 12 15 18 18 14 12 13 15 17 17 18 18 16 14 12 10 11 12 12 12 11 11 10 9 9 8 8 7 7 8 9 10 10 10 10 10 10 10 10 11 11 10 10 9 8 8 9
12 12 11 10 10 10 9 9 8 9 9 10 11 12 12 13 13 13 14 15 16 16 16 16 16 17 18 19 20 20 20 20 20 19 19 19 19 17 15 12 11 12 16 17 16 15 15 15 16 18 18 16 11 8 7 9 10 11 11 10 8 7 7 7 7 7 7 8 8 9 9 9 9 9 10 11 11 11 11 11 12 11 11 10 9 9 11
14 13 12 11 11 10 10 9 9 9 10 11 12 12 12 11 12 12 13 14 14 13 13 13 13 13 13 13 14 14 14 13 13 14 14 15 15 14 13 13 13 14 16 17 16 15 15 14 15 16 17 16 12 8 7 9 10 9 8 7 6 6 7 7 7 7 8 8 9 9 8 8 9 10 10 11 11 11 11 12 12 12 12 11 11 11 12
13 13 12 12 12 11 11 10 9 9 9 9 9 10 10 10 10 11 12 12 12 11 11 11 11 11 10 11 12 12 11 11 11 12 11 12 12 13 12 12 12 12 14 15 14 16 18 16 13 12 11 11 9 8 8 9 9 7 6 6 7 7 7 7 6 7 8 8 7 7 6 6 7 8 10 11 12 12 13 13 13 13 12 12 12 12 12
12 11 11 11 12 12 12 11 10 9 9 8 8 8 9 8 8 10 12 13 12 12 12 12 13 13 12 13 14 14 13 13 12 11 9 7 6 5 5 5 5 5 7 9 10 14 16 13 9 6 6 6 6 7 8 9 8 8 7 8 9 8 8 8 8 8 7 7 6 6 6 6 7 8 9 10 12 13 14 14 14 14 14 13 13 14 13
12 12 11 11 11 12 12 11 11 10 10 9 9 9 8 8 8 10 11 12 12 11 11 11 13 14 13 12 12 12 12 12 11 10 7 3 1 1 2 3 3 3 4 6 7 9 8 7 5 5 4 4 5 5 5 6 7 8 9 9 10 10 11 11 10 9 9 8 8 8 9 9 10 10 10 11 12 13 14 15 16 16 16 15 15 14 13
11 11 11 11 11 11 12 12 11 11 11 11 11 10 9 9 9 9 10 9 9 9 9 10 11 12 12 12 11 10 10 10 10 9 7 4 2 3 4 3 2 2 4 4 4 4 4 3 2 2 3 4 4 5 6 6 7 7 7 7 7 9 11 11 10 10 10 10 11 12 13 13 14 14 15 15 16 16 16 17 17 16 17 17 16 15 14
8 9 10 10 10 11 12 12 12 12 12 12 11 11 10 10 10 10 9 9 9 9 9 9 10 11 11 11 11 10 9 9 9 8 8 7 6 6 6 4 2 1 2 2 1 1 1 2 3 4 4 5 5 5 6 6 6 7 7 6 5 6 7 7 8 8 8 9 10 11 12 14 15 17 18 19 20 20 20 20 19 19 19 19 18 17 16
6 7 8 9 10 10 11 12 12 12 11 10 10 10 11 11 11 12 12 12 12 11 11 11 11 11 10 10 10 10 9 9 8 7 8 8 7 7 7 6 4 2 2 1 2 3 4 5 6 6 6 5 5 6 6 6 6 7 8 8 8 8 7 7 7 8 8 8 8 9 10 12 14 16 18 21 23 24 24 24 22 21 21 21 20 20 19
4 5 6 7 8 8 9 11 11 11 10 10 11 11 12 13 13 14 15 15 14 13 13 12 12 11 10 9 9 9 9 9 8 8 8 7 7 6 6 5 4 3 3 2 2 2 3 4 5 6 6 6 5 6 6 6 6 5 5 6 7 8 8 9 9 9 8 8 9 10 12 13 14 14 15 17 20 23 25 26 26 25 24 23 23 22 21
4 2 2 4 6 6 8 11 11 10 10 11 13 13 14 14 15 15 16 15 14 13 12 12 11 10 10 9 8 8 8 8 9 9 8 7 5 4 4 5 4 2 2 1 1 2 3 4 5 6 7 7 6 5 5 4 3 2 2 2 3 4 5 7 8 8 9 9 11 13 14 14 15 15 13 12 14 17 18 20 21 23 25 25 24 23 22
6 2 1 2 3 5 7 11 13 12 11 11 12 13 14 14 14 15 15 15 14 12 11 11 10 10 9 9 8 8 8 8 8 8 8 6 4 4 4 3 3 2 2 2 4 5 5 6 7 7 7 7 5 4 3 3 3 3 2 2 3 4 5 7 8 9 11 13 14 15 14 14 14 15 15 13 12 14 14 15 16 18 20 22 22 22 23
9 7 5 3 2 2 4 8 11 12 12 11 11 12 12 13 13 14 14 14 14 13 12 11 11 10 9 8 8 8 7 8 7 6 6 5 4 3 2 3 3 3 4 4 5 6 6 7 8 9 8 8 7 7 6 5 5 5 5 5 5 6 7 8 10 12 14 15 15 15 13 11 10 11 12 12 12 13 14 14 15 16 17 18 20 21 22
8 8 7 4 1 2 3 6 8 9 10 11 11 10 11 12 13 13 13 13 13 14 13 12 12 11 10 9 9 8 7 7 7 6 5 4 2 1 2 3 3 4 4 4 4 4 5 7 8 9 10 10 10 9 9 8 8 8 8 8 8 9 10 11 12 13 16 16 15 13 11 10 9 9 9 10 11 12 12 12 13 13 14 16 18 20 20
5 6 7 4 0 1 3 6 7 8 10 11 10 8 8 10 11 12 13 13 13 13 12 11 12 12 11 11 10 9 8 8 7 7 6 5 3 3 3 3 4 4 4 4 4 4 4 5 6 8 9 10 11 11 11 10 10 10 10 11 12 12 13 13 13 14 16 15 13 12 11 10 10 10 10 10 10 11 11 11 12 13 14 15 17 18 18
4 5 5 4 2 3 6 7 7 8 10 10 8 7 7 8 9 11 12 12 12 13 13 13 13 11 9 9 9 9 9 8 8 8 7 7 6 6 6 6 6 6 7 7 7 7 6 6 6 7 8 10 11 12 13 13 13 13 13 14 15 14 14 14 14 15 15 15 14 14 13 13 12 12 12 11 11 11 11 12 13 14 16 17 18 18 17
Wind_Direction
222 219 224 228 214 210 222 213 210 209 193 182 187 193 180 155 164 215 227 188 185 199 202 204 205 199 199 202 198 196 195 195 196 198 200 203 206 209 212 215 218 222 225 229 232 233 235 234 231 229 229 230 229 226 224 224 223 226 228 228 229 223 209 208 221 218 210 207 208 211 217 215 213 211 206 206 211 216 218 218 219 224 232 245 253 256 262
228 220 227 233 228 232 239 230 224 215 197 191 195 195 175 169 190 203 178 181 199 203 198 204 205 200 198 193 187 188 191 193 194 195 198 203 207 210 212 215 219 223 227 231 235 236 236 235 233 232 231 230 227 225 226 226 227 230 232 230 229 222 210 211 223 221 211 205 203 207 213 210 209 207 202 207 229 222 214 216 220 226 237 247 253 258 264
237 222 225 230 226 231 237 240 237 221 201 199 195 179 160 172 219 209 161 180 209 225 208 195 186 177 168 161 171 182 189 192 193 195 199 204 207 210 213 217 220 224 228 232 236 238 239 239 237 235 233 230 228 227 228 230 232 234 235 232 230 225 217 216 220 216 208 204 206 211 209 206 208 208 209 224 240 219 213 218 222 229 241 249 254 260 261
232 225 223 226 221 223 241 254 247 209 176 187 189 164 161 171 165 116 129 179 216 233 164 109 131 149 155 173 184 188 191 191 191 195 199 203 207 209 212 217 220 224 230 234 237 240 241 242 240 237 234 230 229 230 233 235 237 237 236 235 231 222 216 213 210 206 201 202 210 216 213 210 213 213 222 236 236 220 218 223 226 233 245 250 256 260 257
235 233 211 202 187 201 244 258 232 192 174 158 132 85 52 145 143 141 160 208 217 192 141 137 159 170 173 192 194 190 192 193 192 195 199 201 205 208 212 217 221 227 234 238 241 244 245 246 245 242 237 235 236 238 238 239 239 237 234 229 219 212 211 211 210 209 202 198 205 213 214 213 214 218 231 238 236 227 224 228 231 239 246 250 257 258 254
227 229 166 147 157 198 235 260 203 174 159 127 110 87 6 13 124 167 203 227 187 155 154 163 170 175 181 193 195 190 188 190 192 196 199 200 203 208 213 218 224 231 238 245 250 254 257 257 255 250 245 243 243 242 241 239 238 233 227 219 214 214 215 215 218 217 203 193 197 205 207 209 218 234 234 232 233 231 230 233 236 240 245 251 256 256 254
202 179 130 150 198 219 248 313 358 111 125 117 104 86 46 18 2 312 324 280 192 174 167 159 154 156 168 182 190 192 192 192 192 193 196 199 203 208 213 218 226 233 242 252 263 270 272 272 268 262 256 251 247 244 241 238 234 229 226 225 225 225 221 219 221 217 202 194 194 198 202 207 226 238 231 226 229 231 232 236 239 242 248 253 256 256 258
163 142 146 181 208 259 324 344 358 53 105 105 87 55 18 10 5 347 24 72 188 153 145 153 152 151 151 160 176 185 188 189 187 187 190 195 199 205 211 217 223 224 225 233 245 262 269 270 269 268 265 260 252 245 240 236 233 232 232 231 231 228 225 223 221 210 200 197 195 196 202 211 226 232 227 226 230 232 234 239 244 248 252 254 258 261 264
148 130 142 176 74 4 333 318 299 292 314 120 105 80 351 345 11 359 15 111 95 85 102 134 141 138 132 129 151 164 164 166 171 176 181 186 192 199 203 205 204 197 199 208 219 256 280 280 276 270 265 262 254 245 240 237 235 235 234 233 233 230 224 221 218 207 200 197 196 200 208 216 224 227 226 230 235 236 238 243 249 254 256 258 261 263 266
115 106 107 81 58 50 247 274 282 292 321 278 143 101 10 320 3 4 355 116 112 109 114 127 130 124 114 108 158 161 158 161 165 170 177 182 183 184 185 187 189 193 203 214 223 248 287 298 298 287 274 266 255 246 241 238 236 235 234 234 235 229 221 219 219 211 201 196 197 204 212 218 226 231 230 234 240 241 244 250 256 261 261 262 262 264 268
70 101 120 133 119 204 246 278 293 313 324 297 154 88 16 295 346 7 17 61 91 115 128 131 120 108 113 162 180 164 168 175 176 173 173 172 170 173 180 189 198 204 213 220 225 245 277 289 294 293 284 271 257 248 244 239 236 236 236 237 236 226 220 224 227 214 201 196 202 212 217 221 234 244 243 248 251 249 252 258 262 264 263 261 261 263 266
93 100 96 113 137 238 267 278 298 309 314 325 93 104 226 296 342 17 75 62 40 86 108 104 85 84 140 177 188 140 167 175 174 172 170 168 171 179 188 195 203 208 214 224 242 275 295 301 302 302 291 276 267 259 251 243 242 244 243 238 230 220 220 232 233 218 205 202 211 220 222 227 242 249 252 265 266 258 259 262 262 263 261 260 262 261 260
16 89 96 91 217 246 266 283 298 308 324 55 100 175 223 342 1 43 88 86 74 76 78 73 65 65 80 86 72 95 140 154 157 162 166 166 170 182 193 202 211 220 236 266 292 306 315 317 315 311 299 289 283 272 259 250 248 247 240 229 222 222 230 240 234 219 209 209 217 222 225 235 249 250 255 270 270 261 261 264 264 265 266 267 268 263 261
20 85 103 65 279 257 307 310 309 323 28 105 143 153 76 37 33 63 79 82 83 80 75 74 75 73 74 77 76 80 96 115 125 132 139 142 151 178 201 217 246 269 282 297 305 309 314 316 314 312 304 295 287 273 261 252 245 240 233 227 226 228 232 239 231 219 213 214 219 222 229 243 254 256 262 269 265 260 264 266 267 270 273 275 273 267 264
59 67 72 84 199 277 330 326 321 357 70 151 141 103 73 56 58 68 72 76 81 81 81 81 81 80 79 78 78 79 86 94 96 94 91 86 84 303 296 301 301 297 297 304 306 302 303 306 307 307 303 294 282 268 257 246 238 236 235 231 226 222 224 232 226 218 216 220 222 225 235 250 260 266 268 265 259 261 268 272 272 272 274 277 275 270 269
93 110 112 169 209 297 340 357 98 81 97 121 115 101 84 70 67 67 68 72 77 82 85 83 81 79 76 73 76 84 88 90 88 79 61 38 2 334 322 309 301 296 294 298 297 289 286 293 298 300 300 294 278 261 249 239 234 236 236 228 220 219 226 231 222 217 219 223 224 228 240 255 264 269 265 259 257 262 269 273 273 274 275 276 274 272 275
151 152 181 227 225 2 23 77 111 108 108 112 105 97 89 80 75 73 69 66 68 75 79 78 74 72 68 64 64 69 77 84 87 79 62 49 5 325 311 297 290 285 282 283 284 279 279 286 293 298 297 286 266 251 243 238 237 240 236 224 220 222 228 226 220 219 221 224 228 235 246 257 264 266 264 264 264 265 268 271 273 276 277 275 273 275 281
132 76 48 33 52 55 64 88 105 108 109 108 101 96 92 86 81 78 71 64 61 62 63 64 61 58 57 53 41 29 30 43 53 57 59 54 23 340 323 310 297 284 276 277 277 277 281 287 293 296 286 264 247 243 241 239 239 239 229 219 218 220 217 216 219 222 224 229 236 242 250 259 264 266 268 268 265 264 268 271 272 273 272 270 273 278 282
133 75 3 12 59 73 81 88 97 102 102 101 99 98 97 94 90 85 79 73 68 63 59 56 52 46 40 33 20 14 15 15 17 25 32 30 16 353 334 322 309 295 286 284 283 284 288 291 293 286 266 244 236 236 233 226 224 222 215 210 210 207 201 203 215 223 228 234 241 245 250 257 262 265 265 262 259 260 263 264 264 264 264 267 272 275 274
116 131 172 102 79 89 100 94 95 97 97 97 95 95 99 100 93 86 82 77 73 70 65 61 59 54 39 21 9 18 18 5 354 359 11 16 11 350 327 318 315 309 303 297 294 293 294 292 287 272 253 236 226 222 216 208 206 205 199 197 199 199 199 205 215 221 226 231 234 239 245 251 257 260 259 256 256 257 257 256 257 258 261 265 266 265 263
84 103 139 116 87 76 87 102 104 105 106 104 99 96 97 95 89 84 80 73 66 67 65 60 59 54 33 16 9 11 357 333 327 344 1 5 357 337 321 319 315 310 307 304 301 300 297 289 278 265 249 230 215 209 202 198 208 213 202 193 189 187 190 200 206 208 211 220 230 238 246 250 253 255 254 254 256 256 255 255 255 256 259 260 260 259 260
131 143 170 147 115 92 107 117 117 117 115 108 100 94 89 85 84 85 84 80 75 71 68 62 55 48 34 15 358 327 292 287 299 319 338 343 336 325 319 318 313 309 309 308 305 302 298 290 280 268 252 229 214 207 195 187 200 208 197 179 167 165 170 185 200 206 213 222 232 240 246 249 250 251 252 253 252 251 251 251 252 255 259 260 261 262 264
143 143 145 132 118 115 118 110 105 106 104 96 88 83 81 79 78 78 81 80 77 73 70 65 59 53 46 32 359 314 286 280 287 303 319 325 323 324 325 321 317 314 311 310 310 307 302 296 288 272 248 225 212 202 183 173 179 183 174 162 160 168 179 194 210 217 221 226 232 236 240 244 246 247 247 245 243 243 245 247 251 257 260 261 262 264 266
81 112 117 111 103 100 98 95 94 95 94 89 83 78 78 78 77 76 76 73 70 68 65 59 54 49 40 29 7 337 314 295 291 299 308 310 315 325 327 321 316 313 311 312 313 309 302 298 288 264 235 216 207 200 189 185 188 186 178 176 181 188 197 209 217 218 217 220 227 234 237 239 240 239 237 237 238 241 244 247 252 256 258 260 263 265 268
105 105 104 100 96 93 91 90 87 84 84 84 81 76 75 74 74 75 72 65 59 57 55 51 47 40 29 20 11 355 334 315 301 294 292 296 307 318 321 320 317 314 311 310 306 300 295 290 275 247 224 212 209 208 203 198 198 197 194 192 192 195 204 212 213 211 213 218 224 230 233 235 237 239 239 238 241 244 246 249 252 254 257 262 265 267 270
105 102 100 94 88 86 89 86 78 74 78 80 76 72 69 67 67 66 63 59 54 49 47 45 39 33 28 22 16 8 356 344 331 310 295 293 298 306 312 315 316 312 306 300 293 289 285 272 247 226 214 205 201 200 198 197 198 196 192 191 193 198 206 210 210 213 220 223 222 225 230 235 238 240 240 240 242 246 249 252 255 257 261 263 265 268 273
103 106 104 92 75 72 79 79 73 72 75 73 70 69 65 61 61 59 55 53 49 42 38 34 27 23 23 21 18 14 8 1 356 349 332 313 302 300 298 296 298 302 297 289 282 274 259 237 222 215 209 203 199 197 198 201 199 191 187 192 203 211 213 213 215 220 225 225 224 227 231 233 235 237 237 238 240 244 249 255 258 259 260 262 265 270 274
98 101 103 98 87 79 81 81 78 76 71 62 60 59 49 41 42 40 40 41 35 27 22 17 11 5 2 3 3 2 0 358 355 353 349 335 317 303 292 288 292 295 292 286 278 262 240 222 213 208 206 208 208 201 193 192 191 190 193 205 214 215 214 214 217 223 227 228 230 232 235 237 237 236 235 237 240 244 249 252 254 256 259 263 266 269 271
88 88 89 91 90 87 84 78 71 66 59 50 44 37 27 23 24 26 27 24 16 9 6 4 1 357 353 350 348 348 349 348 344 342 339 332 321 306 293 289 290 290 289 284 274 260 247 233 221 214 212 213 210 200 192 196 200 202 204 206 209 212 216 219 222 226 229 232 234 237 239 238 235 233 235 239 242 246 249 252 254 257 260 263 266 268 270
84 85 84 81 79 79 73 62 53 47 41 35 30 23 17 13 11 11 10 6 0 357 353 349 345 343 341 338 339 342 341 337 332 329 326 323 320 315 309 301 292 289 287 278 266 261 253 238 226 220 216 208 200 198 203 206 206 203 200 202 209 218 223 225 227 229 232 236 238 237 234 231 233 238 242 244 247 250 252 253 257 260 262 266 271 272 266
81 76 72 67 62 59 55 47 39 35 33 29 24 18 10 3 359 356 353 350 348 346 344 340 336 335 334 332 331 330 329 328 329 327 322 319 315 313 318 318 308 298 290 276 264 260 253 239 229 226 223 212 202 203 206 200 193 194 199 204 211 218 223 230 235 235 237 242 243 240 238 241 245 247 247 249 253 254 253 255 259 262 266 270 273 263 240
76 66 58 54 50 47 44 38 30 27 26 20 16 14 6 356 349 345 341 339 337 335 334 333 331 331 332 328 323 320 321 324 328 327 324 322 317 312 313 316 311 300 291 281 272 265 258 250 239 229 220 210 201 199 200 196 196 203 211 214 219 222 227 232 232 232 236 241 244 248 252 254 255 255 255 256 258 256 255 257 259 261 264 269 266 243 228
60 54 47 42 43 42 40 35 30 24 19 13 10 6 354 341 336 332 328 325 324 323 323 324 324 324 325 325 323 320 318 320 322 323 322 324 325 322 318 313 306 294 283 276 270 264 261 255 238 217 205 201 201 204 205 203 207 220 229 231 231 227 224 224 225 230 238 244 248 253 255 254 257 259 257 257 257 255 252 250 249 251 256 256 237 220 219
63 64 56 47 45 40 31 25 17 9 5 1 355 347 338 331 325 321 317 315 315 316 317 319 319 317 318 320 321 319 318 318 320 321 321 322 324 325 324 316 301 288 277 268 262 256 249 236 220 209 207 208 211 214 212 210 220 237 240 234 227 220 217 219 224 234 243 248 250 251 249 251 255 257 256 257 257 251 243 241 241 244 246 242 228 219 218
76 80 73 62 52 38 24 14 5 356 351 346 339 335 333 327 320 315 312 311 312 313 313 314 314 313 313 313 313 313 315 316 317 318 318 319 320 322 323 314 293 275 266 256 244 230 217 208 208 213 215 216 220 223 222 225 234 240 233 221 214 214 218 224 232 241 246 246 246 247 248 252 255 254 255 257 254 242 233 236 240 240 239 237 230 226 229
44 36 23 15 9 1 355 353 350 349 349 347 342 336 330 324 321 318 315 313 312 311 309 308 307 306 306 307 309 309 310 310 310 311 311 313 317 320 320 313 288 262 248 232 214 205 206 213 222 225 224 226 230 228 222 223 227 225 217 211 212 216 224 230 236 240 240 239 240 244 244 246 249 248 249 251 246 238 234 237 240 239 238 237 237 240 249
23 13 4 358 354 352 350 350 349 348 345 339 332 327 325 324 321 318 316 315 313 311 308 306 304 302 302 303 303 304 304 304 304 304 305 310 315 318 315 308 290 262 242 227 221 229 238 237 235 233 234 234 228 214 206 211 214 209 206 208 211 218 227 230 230 232 233 234 237 239 239 240 242 242 241 239 236 235 236 239 241 240 238 238 245 255 259
33 23 12 1 353 349 346 343 341 339 334 329 325 323 324 324 324 323 322 321 319 315 312 310 307 305 303 302 302 303 306 308 307 306 306 310 315 313 305 297 286 261 241 237 246 257 254 241 233 232 232 227 214 207 225 232 216 203 204 207 208 214 220 220 222 228 231 232 235 238 239 242 242 239 236 232 231 233 236 239 243 245 243 243 251 260 259
43 36 27 15 4 356 347 342 340 338 334 329 325 324 325 326 328 330 329 328 329 328 325 323 321 316 314 314 314 314 317 321 323 322 319 316 313 306 292 280 269 255 247 249 249 240 228 221 218 216 217 221 226 238 245 227 208 203 208 208 204 208 212 215 222 226 223 223 228 232 235 237 237 235 234 233 233 236 238 239 242 243 242 245 255 262 259
45 38 31 24 19 12 5 2 0 354 348 343 338 337 338 339 339 340 340 341 345 348 348 348 348 346 348 355 354 349 347 348 345 340 333 324 316 307 292 277 267 259 257 254 237 212 204 210 215 211 213 225 235 241 238 232 233 242 244 229 218 217 214 211 213 212 209 210 217 222 226 229 230 232 235 235 234 236 237 237 236 236 238 244 251 253 252
44 39 34 31 29 26 25 25 23 16 9 4 359 355 353 350 349 353 355 354 356 359 4 6 4 -0 4 11 12 8 7 6 357 347 340 332 326 321 303 275 259 253 253 246 223 205 204 214 226 228 220 215 217 222 231 238 249 259 253 239 231 224 211 201 198 198 200 205 213 221 227 230 232 236 240 239 237 237 239 240 240 241 245 248 249 247 248
41 37 36 37 37 37 37 38 36 30 24 18 12 6 1 353 348 351 354 356 359 3 9 12 8 2 1 8 14 16 16 16 13 6 356 341 330 357 330 301 286 277 259 239 221 215 219 231 245 241 216 196 197 206 208 216 233 244 243 238 231 219 205 197 195 198 206 216 225 232 236 236 237 241 245 246 245 245 245 246 247 247 248 249 249 251 255
41 36 35 37 37 36 37 39 40 37 33 29 26 22 16 6 358 353 350 353 2 8 9 8 6 3 3 9 16 18 16 18 23 25 19 7 359 352 343 336 330 309 290 271 251 243 246 249 243 216 175 150 151 164 175 194 214 222 219 218 216 211 207 206 208 212 220 230 239 245 247 246 245 245 246 247 250 252 252 252 252 250 248 248 250 253 255
42 36 34 35 33 33 37 40 39 38 35 33 31 32 28 22 16 12 6 3 5 7 6 4 5 6 9 12 13 12 9 9 14 19 23 27 31 20 8 12 37 19 304 304 300 215 164 141 135 138 139 138 148 163 175 188 200 202 201 203 204 206 211 217 221 224 231 240 248 254 259 260 258 256 253 251 250 250 252 254 255 253 250 250 251 251 250
38 38 38 37 37 41 46 46 42 41 39 36 35 38 37 31 27 26 24 21 17 12 8 6 5 5 6 7 7 8 9 11 12 16 22 25 25 19 10 9 20 59 86 65 66 98 122 130 138 148 154 155 162 176 187 197 207 217 222 226 229 232 234 234 235 238 242 247 254 263 272 276 274 269 263 257 253 251 251 253 255 255 252 250 250 251 248
22 38 44 43 41 44 48 45 39 37 37 38 39 40 38 37 35 33 29 25 22 18 13 8 4 2 1 2 4 7 12 14 16 18 15 6 0 3 7 7 21 68 94 90 88 121 142 152 160 166 168 167 170 182 192 200 210 220 225 228 236 243 247 249 253 256 259 266 277 287 294 299 300 291 276 264 257 255 252 251 253 255 254 251 252 252 249
351 352 45 53 46 43 43 41 37 32 29 31 35 36 36 36 37 34 29 24 20 15 12 9 6 5 4 2 0 3 7 9 11 15 13 4 359 10 16 7 7 34 68 99 184 197 202 198 187 181 177 173 171 174 178 176 178 184 197 231 254 260 263 266 270 272 274 283 296 305 309 313 318 320 312 288 267 258 254 252 252 253 251 250 250 248 243
13 1 95 89 65 50 43 40 40 38 33 29 28 28 28 26 24 23 24 23 19 13 9 8 7 7 7 4 0 356 355 355 358 3 7 8 15 32 28 7 349 341 315 271 254 250 242 224 207 198 193 190 195 208 216 211 212 228 254 271 272 274 279 283 286 290 293 297 302 307 306 305 312 324 327 312 283 266 262 260 257 254 251 250 248 243 237
37 42 55 68 89 83 47 37 39 44 44 40 34 27 20 14 10 9 11 14 16 14 12 9 7 5 2 1 0 357 352 348 346 346 349 356 10 27 9 330 309 306 300 284 272 266 253 233 221 218 219 224 235 246 248 242 243 256 269 278 285 294 301 303 305 306 305 302 299 299 298 297 301 315 321 312 290 273 266 261 257 254 252 249 243 235 229
35 32 26 18 151 151 63 36 38 42 39 35 31 24 16 12 9 4 359 0 7 11 12 13 14 13 7 359 356 354 350 347 344 339 332 330 331 331 316 305 297 290 279 264 257 254 243 231 227 229 232 235 241 246 248 249 256 267 276 283 290 297 300 302 303 303 300 295 292 291 292 288 287 298 310 305 286 271 261 254 249 247 243 238 233 228 228
27 27 19 10 75 123 35 22 24 23 15 10 10 11 10 9 7 3 357 353 353 355 357 2 10 17 19 16 9 1 352 345 342 336 328 319 304 283 277 282 282 273 256 241 235 238 240 235 236 240 241 241 243 246 247 251 257 265 273 281 286 290 293 295 296 295 292 289 290 293 292 284 280 288 299 300 287 274 266 259 251 244 238 234 231 231 234
33 47 39 33 38 24 13 11 13 10 2 356 356 358 355 347 342 344 347 349 347 342 338 337 340 349 1 12 15 15 11 2 352 342 333 325 317 303 290 282 276 266 253 242 238 239 243 244 246 248 248 247 248 249 251 253 259 266 273 278 282 286 289 292 292 292 292 292 296 299 298 291 283 283 288 292 287 279 274 271 264 256 249 243 239 237 235